CZ-6A DEB, 55535

Orbit data source: Space-Track

CZ-6A DEB, 55535 is space debris in SSO originally from a launch on Fri, 11 Nov 2022 UTC launched from the Taiyaun Space Center, China (TSC). Debris objects in space refer to the collection of defunct objects orbiting the Earth. Examples of debris include non-operational satellites, rocket bodies, and fragments generated from explosions, collisions, or faulty payload assembly.

Loading next visibility...
Identifier
55535, 2022-151YH
Orbit
SSO
Country
Flag of CNCN / PRC
Related business
Manufacturer
SAST
Mission
Spacecraft
Bus & Motor
Unknown
Mass
Unknown
Launch date (UTC)
2022-11-11 (4 years ago)
Launch vehicle
Unknown
Launch site
Taiyaun Space Center, China (TSC)
Object type
Payload
Rocket body
Debris
Shape & HBR
Unknown shape, 0.1 m
Radar Cross Section
Medium (>0.1 m² and <1 m²)

Expand to show TLE details & history
Last TLE update: 8 hours ago

TLE from 8 hours ago
0 CZ-6A DEB
1 55535U 22151YH  26264.15125455  .00006313  00000-0  90212-3 0  9992
2 55535  98.6269 339.9984 0067840 330.6762  29.0645 14.75483105199331
Epoch: 2026-09-21T03:37Z
TLE epoch observation values (Epoch: 2026-09-21T03:37:48.393Z)
Latitude
0.00002°
Longitude
-74.48844°
Altitude
605.042 km
Speed
7.579 km/s
True Right ascension
22h 39m 59s
True Declination
0° 00' 00"
Sunlit
Object was in full shadow at epoch
Visualization orbit readout
Latitude
Unknown
Longitude
Unknown
Altitude
Unknown
Speed
Unknown
Apparent Right ascension
Unknown
Apparent Declination
Unknown
Sunlit
N/A
Visualization observer readout
Local Sidereal Time
04:57:34
Azimuth
Unknown
Elevation
Unknown
Doppler factor
Unknown
Orbital elements
Apogee altitude
688.315 km
Perigee altitude
593.083 km
Semi-major axis
7,018.836 km
Eccentricity
0.00678
Inclination
98.6269°
RAAN
339.9984°
Arg. of periapsis
330.6762°
True anomaly
29.44497°
Mean anomaly
29.0645°
Eccentric anomaly
29.25445°
Mean motion
3.69101 °/min
Orbital period
97.53 mins
BSTAR
0.00090212
Loading maneuver chart data...
Computing Atmospheric mass density...
Loading historical data...
Loading historical data...
Loading historical data...
Loading historical data...
Loading historical data...
Loading historical data...
Loading historical data...

Documentation

Showing up to 5 results
|